This demonstration page uses our WeatherBlox Daily Observations layout. Learn more.

Left ArrowRight Arrow

38.80484, -77.04692

Hourly Observations for April 24, 2017

Temp ( °F °C ) Dew Point ( °F °C ) Humidity (%) Winds ( mph kmh ) Pressure ( in mb ) Visibility ( mi km ) Precip ( " mm )
12:52 am 00:52 Cloudy 57 13.9 47 8.3 69 69 E 7 11 30.10 1019 10 16 0.00 0.00
1:52 am 01:52 Cloudy with Light Rain 56 13.3 48 8.9 75 75 E 7 11 30.09 1019 10 16 0.00 0.03
2:52 am 02:52 Cloudy with Light Rain 55 12.8 48 8.9 77 77 ENE 6 9 30.07 1018 10 16 0.00 0.03
3:52 am 03:52 Cloudy with Light Rain 55 12.8 45 7.2 69 69 ENE 6 9 30.07 1018 10 16 0.00 0.03
4:52 am 04:52 Cloudy 55 12.8 44 6.7 67 67 ENE 8 13 30.06 1018 10 16 0.00 0.03
5:52 am 05:52 Cloudy 54 12.2 46 7.8 75 75 NE 9 15 30.07 1018 10 16 0.00 0.03
6:52 am 06:52 Cloudy 54 12.2 47 8.3 77 77 NNE 9 15 30.09 1019 10 16 0.00 0.03
7:52 am 07:52 Cloudy 54 12.2 47 8.3 77 77 NE 12 19 30.09 1019 10 16 0.00 0.00
8:52 am 08:52 Cloudy with Light Rain 53 11.7 49 9.4 86 86 NE 15 24 30.10 1019 7 11 0.01 0.25
9:52 am 09:52 Cloudy 53 11.7 50 10 89 89 NE 16 26 30.09 1019 10 16 0.00 0.03
10:52 am 10:52 Cloudy 55 12.8 49 9.4 80 80 NE 17 28 30.09 1019 10 16 0.00 0.00
11:52 am 11:52 Cloudy 56 13.3 47 8.3 72 72 NE 14 22 30.07 1018 10 16 0.00 0.00
12:52 pm 12:52 Cloudy with Light Rain 57 13.9 45 7.2 64 64 NE 15 24 30.05 1018 10 16 0.00 0.03
1:37 pm 13:37 Cloudy with Rain 56 13.3 46 7.8 70 70 NE 13 20 30.03 1017 4 6 0.04 1.02
1:52 pm 13:52 Cloudy with Light Rain 55 12.8 47 8.3 74 74 NE 20 31 30.04 1017 4 6 0.05 1.27
2:37 pm 14:37 Cloudy with Light Rain 54 12.2 49 9.4 83 83 NE 9 15 30.06 1018 3 4 0.05 1.27
2:52 pm 14:52 Cloudy with Rain 54 12.2 49 9.4 83 83 NE 13 20 30.04 1017 4 6 0.06 1.52
3:52 pm 15:52 Cloudy with Light Rain 54 12.2 51 10.6 90 90 NNE 10 17 30.02 1017 10 16 0.03 0.76
4:52 pm 16:52 Cloudy with Light Rain 55 12.8 51 10.6 87 87 NNE 13 20 30.01 1016 10 16 0.03 0.76
5:52 pm 17:52 Cloudy 56 13.3 52 11.1 87 87 NNE 14 22 30.01 1016 10 16 0.00 0.03
6:52 pm 18:52 Cloudy 57 13.9 49 9.4 74 74 ENE 15 24 30.00 1016 10 16 0.01 0.25
7:52 pm 19:52 Cloudy with Light Rain 56 13.3 49 9.4 77 77 NE 9 15 30.01 1016 10 16 0.00 0.03
8:10 pm 20:10 Cloudy with Light Rain 55 13 48 9 77 77 NE 13 20 30.03 1017 9 14 0.00 0.00
8:52 pm 20:52 Cloudy with Light Rain 54 12.2 50 10 87 87 NE 13 20 30.02 1017 5 8 0.03 0.76
9:52 pm 21:52 Cloudy 55 12.8 50 10 83 83 NE 17 28 30.01 1016 10 16 0.00 0.03
10:52 pm 22:52 Cloudy 54 12.2 50 10 87 87 NE 14 22 29.99 1016 10 16 0.00 0.00
11:48 pm 23:48 Cloudy with Light Rain 54 12 50 10 88 88 NE 12 19 30.00 1016 10 16 0.00 0.00
11:52 pm 23:52 Cloudy with Light Rain 54 12.2 50 10 87 87 NE 13 20 29.99 1016 10 16 0.00 0.03

Powered by AerisWeather